Theta_e
294 294 295 294 292 294 292 294 288 293 293 297 298 300 302 305 306 306 305 306 308 308 311 313 316 319 321 323 325 327 329 331 330 338 335 327 326 327 324 324 323 323 319 318
290 294 294 292 295 295 295 296 295 295 295 301 300 304 303 302 303 304 304 305 306 306 308 311 313 317 321 323 324 328 328 331 331 329 325 326 327 324 322 322 321 318 318 314
286 293 291 289 294 295 296 296 294 290 296 299 298 301 302 302 302 302 302 304 305 304 307 311 314 317 319 323 325 328 329 331 329 329 325 318 318 319 319 315 309 307 306 304
285 291 282 294 300 299 297 297 298 296 298 298 298 301 302 302 300 301 303 303 303 303 306 313 316 318 320 323 324 327 330 325 324 323 320 315 313 308 307 306 304 301 303 302
284 286 291 294 298 296 294 293 298 297 298 298 299 299 300 303 303 302 303 303 302 304 305 310 315 318 320 322 324 326 326 322 318 316 312 311 307 305 305 302 300 300 299 300
288 284 282 293 298 300 299 289 299 298 296 297 297 289 294 299 300 300 302 301 301 303 305 309 312 317 321 321 324 323 323 320 319 317 312 308 305 304 302 303 302 300 300 299
287 287 291 297 299 301 286 291 299 298 298 296 292 295 298 299 297 299 300 301 303 304 306 308 312 316 316 321 320 320 321 320 316 314 309 308 304 303 303 300 299 298 296 298
291 287 284 302 299 289 295 297 297 298 296 295 296 295 294 295 296 296 297 301 304 305 306 311 312 314 317 316 317 315 316 315 312 308 306 303 300 300 302 299 297 295 296 296
292 293 302 303 298 301 302 297 296 296 296 294 293 292 293 293 294 296 298 300 304 305 307 311 314 317 313 312 313 312 310 306 305 304 302 301 300 300 297 298 295 294 294 295
293 297 299 301 301 301 298 296 297 295 294 294 293 294 295 298 301 306 307 302 305 307 310 311 317 313 312 311 310 308 306 304 304 302 301 302 302 300 300 298 297 297 297 298
295 298 299 300 298 297 298 297 295 295 296 296 296 297 298 303 303 306 310 309 308 309 311 316 312 310 310 308 307 304 304 304 303 304 303 300 295 299 296 297 300 299 298 297
289 297 293 293 298 298 295 293 294 295 296 299 298 297 299 301 303 303 303 304 304 305 306 307 307 306 307 307 305 303 301 299 296 296 295 294 291 290 289 289 289 289 290 292
296 299 298 298 298 298 294 294 296 298 299 297 297 297 298 298 300 302 302 302 301 302 302 303 303 303 304 305 305 303 299 297 296 295 293 292 290 288 287 288 288 288 287 288
300 298 295 296 294 296 295 296 299 300 299 297 296 297 296 295 296 297 298 299 300 300 300 300 301 301 303 303 302 301 300 297 297 294 292 290 293 293 292 292 289 289 289 289
298 298 296 297 296 295 297 298 298 296 296 295 296 294 293 293 292 293 296 298 298 298 298 299 298 298 301 301 300 300 297 297 295 294 293 296 297 294 293 291 291 291 292 292
297 297 296 294 294 295 296 297 295 295 294 294 293 293 293 294 294 294 295 296 295 295 296 295 295 298 298 299 298 296 297 294 294 293 295 295 295 294 293 294 293 294 294 295
293 291 293 292 293 295 296 297 296 295 294 293 292 291 291 291 292 292 294 295 295 294 295 296 295 296 295 296 294 293 293 294 292 296 295 295 295 295 296 295 296 294 294 292
296 296 295 296 295 295 295 296 295 295 294 294 292 291 291 290 289 291 292 294 294 293 294 295 296 296 296 295 295 294 293 293 295 295 296 296 296 296 296 295 294 293 294 293
297 295 297 296 297 297 296 295 295 294 294 294 292 291 292 292 292 292 293 292 292 292 293 296 295 296 295 295 296 296 295 295 297 297 296 293 296 297 295 295 294 295 295 295
296 297 297 297 297 297 295 295 295 294 294 294 294 294 293 293 293 293 294 292 294 295 296 297 297 297 298 296 294 297 296 295 296 295 297 297 297 297 296 293 295 295 295 295
296 297 296 295 296 296 295 296 295 294 295 295 294 293 293 294 294 294 293 292 295 298 298 296 298 298 299 297 297 298 298 299 298 298 298 298 297 296 296 296 296 296 296 296
297 296 295 295 295 294 295 296 295 295 295 295 296 297 296 297 297 297 299 297 298 293 299 300 300 295 297 293 301 300 300 300 299 299 299 298 298 297 296 296 296 296 296 296
296 296 295 295 294 293 294 295 295 295 295 295 297 298 299 299 300 297 296 300 301 296 300 299 289 287 289 302 301 301 300 299 300 299 300 300 298 297 297 297 296 296 296 296
297 296 295 296 295 293 292 293 295 295 295 296 300 302 303 300 301 300 297 292 290 296 299 296 293 288 294 303 301 300 300 301 300 300 300 295 299 298 297 297 297 297 297 295
298 296 295 295 293 293 293 293 294 295 295 297 301 304 304 303 301 300 300 298 290 296 299 287 288 289 301 301 301 301 301 300 300 300 299 300 299 298 298 298 297 296 297 297
297 296 296 295 296 295 295 295 293 294 296 298 301 302 302 300 298 299 299 297 299 295 299 300 301 302 302 302 301 301 301 299 300 300 299 299 299 299 298 297 297 297 297 297
297 296 298 296 297 296 296 295 294 295 297 300 299 301 301 300 299 298 295 298 299 300 302 301 301 299 301 301 301 300 301 301 297 300 300 300 299 298 299 300 299 298 297 297
Wind_Speed
21 26 26 28 28 25 24 24 22 23 28 24 19 19 21 16 12 15 15 15 14 14 14 14 17 14 12 9 8 10 10 5 9 9 13 14 16 4 19 19 19 16 19 14
23 26 28 26 27 26 28 25 23 22 22 17 7 11 11 15 19 17 18 19 15 16 18 17 16 15 14 10 7 10 10 17 13 16 14 11 19 13 16 18 18 19 15 14
19 21 22 20 20 14 15 14 15 18 21 18 18 18 18 18 18 19 19 20 20 19 19 18 15 15 15 11 6 10 4 20 14 18 21 20 15 15 12 17 19 18 15 15
10 21 12 9 16 13 11 14 14 20 22 20 16 13 17 16 20 22 21 21 15 13 16 17 12 15 14 11 6 10 12 15 15 17 18 19 21 16 17 16 17 16 14 13
5 9 17 11 11 11 15 18 26 17 11 13 18 20 24 19 15 17 18 13 11 14 15 16 15 15 14 12 9 6 15 18 18 21 20 20 21 21 7 17 17 13 14 13
7 12 12 12 12 11 19 21 4 11 18 23 18 14 18 12 13 18 19 16 17 18 19 16 18 15 16 13 10 15 17 20 21 20 21 21 23 20 7 15 16 14 13 11
12 9 11 7 16 16 10 14 27 22 22 23 19 19 25 22 24 21 20 22 20 19 17 16 17 14 14 8 14 11 17 21 20 21 23 22 23 20 8 14 16 16 13 11
7 11 8 20 25 5 11 16 18 23 22 22 21 24 26 25 24 24 23 24 22 18 17 15 14 12 11 15 15 15 16 20 20 21 16 18 25 20 10 16 16 15 13 11
6 11 24 21 12 15 19 21 25 23 23 22 24 26 27 27 28 26 26 21 18 16 18 16 14 15 16 17 18 18 21 22 21 20 17 20 20 19 12 12 11 13 10 12
15 13 19 23 18 16 20 21 18 21 21 22 25 27 28 24 18 12 13 19 18 18 19 16 16 20 21 20 20 21 23 23 22 21 20 19 12 9 11 9 10 12 11 11
17 21 19 14 13 18 18 19 22 22 20 21 21 17 17 9 12 9 11 15 15 12 13 15 22 22 23 23 23 22 22 20 22 18 20 13 9 7 10 12 10 10 11 12
6 13 7 11 18 20 18 21 21 24 21 15 11 13 14 10 11 14 17 18 17 18 18 21 23 22 22 23 25 25 23 18 17 15 16 12 14 17 28 29 31 26 22 17
5 11 14 21 18 18 17 20 21 20 14 11 11 10 11 8 11 14 15 19 20 20 20 21 22 21 19 22 25 23 24 22 17 17 14 13 14 16 17 19 27 21 24 21
8 15 13 12 16 17 18 19 18 10 7 8 8 9 10 8 13 14 13 16 19 21 21 21 22 20 18 21 24 24 23 31 17 15 15 15 16 17 15 16 15 14 10 10
14 12 13 14 14 17 16 15 10 9 8 8 9 10 10 10 13 14 12 14 19 21 20 22 21 20 19 20 24 24 21 17 16 15 14 16 16 16 16 15 14 15 14 14
14 12 13 15 14 16 14 14 9 9 8 9 10 12 12 12 14 15 15 13 20 17 18 22 22 18 18 18 19 18 19 26 21 16 15 16 15 15 15 13 13 12 13 12
12 13 13 14 15 14 13 11 8 7 8 10 12 13 13 14 15 15 16 16 18 20 19 22 21 19 19 20 21 17 16 14 22 16 15 13 14 15 14 12 14 14 13 12
10 10 11 12 12 11 11 10 8 9 10 12 13 11 14 15 15 15 17 18 20 20 19 20 21 22 20 18 17 15 14 15 15 15 14 14 15 14 14 15 15 15 14 11
10 11 12 11 11 10 9 9 9 9 10 12 13 15 15 15 15 16 18 20 20 20 17 20 28 25 21 18 13 14 13 16 14 15 15 16 15 15 15 15 16 15 13 13
10 11 11 11 11 11 9 9 9 10 10 10 14 15 15 16 16 18 19 19 17 13 19 22 22 21 18 16 15 12 14 16 16 15 14 15 15 15 15 16 15 14 13 13
10 10 10 11 11 11 10 8 10 11 10 9 12 15 17 16 17 18 19 15 16 18 19 23 18 16 14 15 15 14 14 16 16 15 15 15 15 16 16 15 14 13 13 13
8 9 10 10 10 12 9 9 10 11 11 10 11 11 16 16 17 18 19 18 15 13 14 13 13 15 14 16 14 15 15 16 15 14 14 14 14 15 15 14 14 13 13 12
8 8 8 9 11 11 10 11 10 10 9 8 7 9 15 12 12 15 15 12 12 12 13 14 10 10 13 15 15 15 16 17 15 15 14 14 15 15 14 14 13 13 12 11
6 9 8 8 9 10 12 11 11 10 8 6 2 7 12 12 14 12 12 16 16 18 14 13 11 10 13 14 15 16 16 16 15 15 15 15 14 14 14 13 13 12 11 11
7 7 7 7 8 7 10 11 10 8 8 6 8 15 16 12 13 13 12 15 16 18 15 9 8 9 15 15 15 15 15 15 15 15 15 14 14 14 14 13 13 12 11 10
6 5 5 7 7 6 7 8 7 5 3 5 11 12 13 13 12 14 15 16 17 17 16 12 12 14 15 16 16 16 16 16 15 15 15 15 15 13 13 14 13 12 11 11
5 5 4 5 5 6 7 8 8 7 5 9 13 13 14 14 13 14 16 16 14 14 12 13 13 14 15 15 16 16 14 14 15 14 14 14 14 13 12 12 12 12 12 12
Wind_Direction
262 280 280 278 278 279 271 268 261 275 276 289 285 309 325 321 288 267 278 290 289 295 289 294 298 271 264 277 271 269 254 216 92 121 150 120 57 95 124 126 115 127 111 128
282 281 272 271 272 263 266 277 287 295 286 285 36 293 298 299 288 295 295 288 295 301 285 275 269 273 281 272 272 267 215 102 123 109 90 115 135 138 127 120 117 103 111 99
274 290 301 284 284 275 302 312 322 297 300 309 303 299 305 304 299 290 281 275 291 306 288 267 256 259 262 268 253 263 226 123 127 129 111 90 80 95 106 100 97 97 92 89
282 289 274 310 319 283 295 294 305 299 292 303 307 305 290 291 288 277 274 290 292 286 300 267 281 266 253 253 238 262 113 121 127 124 113 111 106 80 79 95 88 91 98 100
259 266 279 295 344 347 334 311 304 304 325 331 310 293 281 286 293 287 278 282 275 275 276 282 269 274 247 240 223 155 136 120 125 123 119 108 102 101 145 103 93 90 93 97
245 274 291 355 36 347 323 299 72 328 311 303 314 286 285 301 282 281 278 270 265 257 264 265 266 258 268 224 128 143 135 131 128 123 118 117 111 93 120 100 121 104 100 98
262 263 275 85 338 337 288 336 323 324 306 307 295 281 293 298 279 265 263 260 253 248 241 243 242 249 262 141 138 138 134 126 126 120 118 113 107 108 128 115 106 101 95 96
298 292 287 350 336 308 314 310 301 307 310 298 299 293 283 279 271 265 255 253 246 236 236 230 224 242 240 132 132 128 126 117 114 117 120 117 112 112 141 114 115 118 115 108
283 292 308 308 316 309 317 316 310 308 310 304 293 289 286 279 270 258 242 233 228 220 223 212 201 220 137 131 127 125 116 111 112 113 119 117 116 118 132 120 123 111 114 109
298 286 303 318 320 306 321 304 306 304 298 295 291 290 292 291 284 267 219 201 202 204 202 189 194 131 128 126 124 120 116 114 113 112 112 99 105 144 127 131 115 123 125 116
270 283 304 309 316 306 310 322 307 303 301 294 292 306 308 327 350 26 123 148 162 178 180 170 128 126 125 125 124 117 113 114 113 105 106 91 72 82 79 53 92 111 110 106
267 312 296 297 310 323 329 313 308 307 311 321 337 330 344 355 25 58 81 95 101 101 105 119 121 123 127 128 126 121 117 108 107 104 97 104 97 86 59 69 67 64 75 93
311 322 315 310 316 327 315 309 307 311 324 347 357 358 23 19 51 69 85 94 99 101 103 108 112 115 120 125 125 120 118 115 110 108 112 116 101 101 101 76 77 77 76 74
359 339 319 309 321 322 310 310 312 325 350 15 23 27 45 47 70 66 79 97 101 101 101 105 106 107 115 119 119 120 116 114 110 128 122 118 118 114 115 105 104 98 87 107
339 332 305 321 319 312 314 324 345 348 20 39 47 56 58 74 75 78 80 96 101 100 106 105 101 105 117 116 119 120 117 118 121 116 120 115 111 110 110 109 115 112 109 91
330 342 336 321 320 318 335 339 356 14 37 48 59 78 75 77 83 84 83 95 105 103 102 102 100 104 108 112 108 106 106 111 113 114 116 110 127 126 116 114 107 108 103 106
345 336 333 325 323 336 345 345 11 32 59 69 76 81 83 84 85 85 91 90 94 98 103 106 106 104 103 106 107 107 113 114 112 113 114 122 113 106 103 105 92 88 84 65
344 337 318 316 335 345 354 11 22 43 68 78 83 83 86 83 89 95 98 99 98 97 100 104 106 105 101 98 102 109 113 112 110 109 111 106 98 95 98 100 104 103 97 87
349 333 339 345 352 4 11 24 39 52 63 81 93 90 89 86 91 97 100 99 100 102 101 103 107 103 100 99 112 97 102 108 110 103 99 102 107 107 107 109 109 110 109 99
349 347 356 360 15 27 35 39 56 63 67 82 93 95 91 86 92 95 93 95 97 103 107 106 104 102 109 124 114 117 109 113 113 109 109 112 111 111 109 104 107 105 101 98
351 4 4 14 22 44 47 48 63 66 64 63 89 88 89 90 91 95 95 97 109 110 114 115 116 128 135 124 123 124 119 107 106 116 112 107 115 114 111 107 107 108 107 102
4 11 15 17 36 50 53 56 73 79 77 82 100 105 108 102 94 91 94 103 121 124 111 114 117 114 128 133 113 114 118 113 114 121 115 115 113 111 110 111 111 109 106 105
31 22 26 27 50 64 62 60 69 72 62 48 82 99 103 106 107 109 110 116 121 115 109 114 106 106 107 114 113 112 119 122 118 115 116 115 111 114 116 114 110 108 109 110
46 49 33 44 56 69 79 74 73 65 44 15 89 127 105 103 93 82 84 84 98 109 113 113 103 107 117 122 126 123 118 119 122 116 109 110 114 111 112 117 114 109 108 101
43 70 56 46 67 67 81 89 85 61 39 25 86 103 102 99 107 112 105 107 110 118 115 101 110 126 120 121 123 124 121 117 117 117 117 116 119 117 112 112 116 122 122 117
60 63 67 59 66 76 79 80 83 68 49 100 101 97 97 99 107 117 122 123 123 124 124 141 135 123 123 123 124 118 112 117 124 121 122 120 116 118 118 120 125 119 114 111
73 42 76 76 56 63 70 76 88 69 53 99 111 119 119 116 116 118 123 133 140 142 127 121 130 124 124 116 114 126 131 118 124 125 117 119 117 123 131 124 118 119 121 122